| time (UTC) | temp F | wind direction | speed MPH | gust MPH | rain 1hr in | rain 24hr in | rain mn in | humidity % | barometer mb |
| 20260505124607 | 54 | 187 | 1.0 | 0.0 | 0.00 | 0.00 | 0.00 | 19 | 1013.2 |
| 20260505123055 | 54 | 202 | 1.0 | 0.0 | 0.00 | 0.00 | 0.00 | 20 | 1013.1 |
| 20260505121552 | 54 | 212 | 0.0 | 0.0 | 0.00 | 0.00 | 0.00 | 19 | 1013.1 |
| 20260505120100 | 54 | 214 | 0.0 | 0.0 | 0.00 | 0.00 | 0.00 | 20 | 1013.0 |
| 20260505114541 | 54 | 182 | 1.0 | 0.0 | 0.00 | 0.00 | 0.00 | 20 | 1013.0 |
| 20260505113041 | 54 | 202 | 1.0 | 0.0 | 0.00 | 0.00 | 0.00 | 21 | 1013.0 |
| 20260505111538 | 55 | 204 | 0.0 | 0.0 | 0.00 | 0.00 | 0.00 | 19 | 1012.9 |
| 20260505101515 | 55 | 204 | 3.0 | 0.0 | 0.00 | 0.00 | 0.00 | 17 | 1012.4 |
| 20260505100017 | 55 | 186 | 3.0 | 0.0 | 0.00 | 0.00 | 0.00 | 16 | 1012.4 |
| 20260505094507 | 55 | 213 | 2.0 | 0.0 | 0.00 | 0.00 | 0.00 | 15 | 1012.3 |
| 20260505093003 | 55 | 199 | 1.0 | 0.0 | 0.00 | 0.00 | 0.00 | 14 | 1012.2 |
| 20260505091558 | 55 | 211 | 2.0 | 0.0 | 0.00 | 0.00 | 0.00 | 13 | 1012.2 |
| 20260505090054 | 54 | 201 | 1.0 | 0.0 | 0.00 | 0.00 | 0.00 | 10 | 1012.0 |
| 20260505084550 | 54 | 202 | 2.0 | 0.0 | 0.00 | 0.00 | 0.00 | 9 | 1012.0 |
| 20260505083046 | 54 | 204 | 1.0 | 0.0 | 0.00 | 0.00 | 0.00 | 5 | 1012.0 |
| 20260505081545 | 54 | 204 | 2.0 | 0.0 | 0.00 | 0.00 | 0.00 | 2 | 1012.1 |
| 20260505080038 | 53 | 185 | 2.0 | 0.0 | 0.00 | 0.00 | 0.00 | 100 | 1011.9 |
| 20260505074532 | 53 | 196 | 0.0 | 0.0 | 0.00 | 0.00 | 0.00 | 1 | 1011.9 |
| 20260505073041 | 53 | 197 | 0.0 | 0.0 | 0.00 | 0.00 | 0.00 | 4 | 1011.9 |
| 20260505071543 | 53 | 197 | 1.0 | 0.0 | 0.00 | 0.00 | 0.00 | 6 | 1011.7 |
| 20260505070019 | 53 | 200 | 1.0 | 0.0 | 0.00 | 0.00 | 0.00 | 8 | 1011.5 |
| 20260505064521 | 53 | 200 | 0.0 | 0.0 | 0.00 | 0.00 | 0.00 | 10 | 1011.2 |
| 20260505063014 | 54 | 200 | 2.0 | 0.0 | 0.00 | 0.00 | 0.00 | 14 | 1011.0 |
| 20260505061509 | 54 | 186 | 0.0 | 0.0 | 0.00 | 0.00 | 0.00 | 19 | 1010.8 |
| 20260505060002 | 54 | 200 | 2.0 | 0.0 | 0.00 | 0.00 | 0.00 | 22 | 1010.5 |
| 20260505054559 | 55 | 205 | 1.0 | 0.0 | 0.00 | 0.00 | 0.00 | 28 | 1010.5 |
| 20260505053102 | 55 | 228 | 0.0 | 0.0 | 0.00 | 0.00 | 0.00 | 36 | 1010.5 |
| 20260505051549 | 56 | 190 | 0.0 | 0.0 | 0.00 | 0.00 | 0.00 | 44 | 1010.4 |
| 20260505041531 | 59 | 164 | 0.0 | 0.0 | 0.00 | 0.00 | 0.00 | 64 | 1010.0 |
| 20260505040036 | 61 | 157 | 0.0 | 0.0 | 0.00 | 0.00 | 0.00 | 65 | 1009.7 |
| 20260505034523 | 62 | 157 | 0.0 | 0.0 | 0.00 | 0.00 | 0.00 | 65 | 1009.4 |
| 20260505033020 | 63 | 234 | 0.0 | 0.0 | 0.00 | 0.00 | 0.00 | 64 | 1009.3 |
| 20260505031514 | 64 | 192 | 0.0 | 0.0 | 0.00 | 0.00 | 0.00 | 62 | 1009.1 |
| 20260505030022 | 65 | 173 | 0.0 | 0.0 | 0.00 | 0.00 | 0.00 | 61 | 1009.0 |
| 20260505024505 | 66 | 193 | 0.0 | 0.0 | 0.00 | 0.00 | 0.00 | 60 | 1008.8 |
| 20260505023002 | 67 | 191 | 1.0 | 0.0 | 0.00 | 0.00 | 0.00 | 58 | 1008.6 |
| 20260505021600 | 68 | 195 | 1.0 | 0.0 | 0.00 | 0.00 | 0.00 | 58 | 1008.5 |
| 20260505020056 | 69 | 167 | 1.0 | 0.0 | 0.00 | 0.00 | 0.00 | 57 | 1008.5 |
| 20260505014548 | 70 | 186 | 3.0 | 0.0 | 0.00 | 0.00 | 0.00 | 55 | 1008.5 |
| 20260505013044 | 72 | 254 | 1.0 | 0.0 | 0.00 | 0.00 | 0.00 | 53 | 1008.4 |
| 20260505011549 | 73 | 200 | 2.0 | 0.0 | 0.00 | 0.00 | 0.00 | 51 | 1008.4 |
| 20260505010038 | 74 | 182 | 4.0 | 0.0 | 0.00 | 0.00 | 0.00 | 49 | 1008.4 |
| 20260505004534 | 75 | 200 | 2.0 | 0.0 | 0.00 | 0.00 | 0.00 | 48 | 1008.2 |
| 20260505003026 | 76 | 202 | 4.0 | 0.0 | 0.00 | 0.00 | 0.00 | 45 | 1008.2 |
| 20260505001521 | 78 | 183 | 1.0 | 0.0 | 0.00 | 0.00 | 0.00 | 42 | 1008.1 |
| 20260505000019 | 78 | 355 | 0.0 | 0.0 | 0.00 | 0.00 | 0.00 | 43 | 1008.1 |
| 20260504234514 | 78 | 347 | 1.0 | 0.0 | 0.00 | 0.00 | 0.00 | 42 | 1008.2 |
| 20260504233011 | 78 | 178 | 3.0 | 0.0 | 0.00 | 0.00 | 0.00 | 42 | 1008.2 |
| 20260504231504 | 77 | 183 | 3.0 | 0.0 | 0.00 | 0.00 | 0.00 | 45 | 1008.3 |
| 20260504230100 | 78 | 209 | 2.0 | 0.0 | 0.00 | 0.00 | 0.00 | 44 | 1008.3 |
| 20260504224600 | 77 | 187 | 3.0 | 0.0 | 0.00 | 0.00 | 0.00 | 44 | 1008.5 |
| 20260504223055 | 78 | 215 | 2.0 | 0.0 | 0.00 | 0.00 | 0.00 | 43 | 1008.5 |
| 20260504221547 | 78 | 134 | 1.0 | 0.0 | 0.00 | 0.00 | 0.00 | 47 | 1008.5 |
| 20260504220100 | 78 | 289 | 1.0 | 0.0 | 0.00 | 0.00 | 0.00 | 46 | 1008.7 |
| 20260504214549 | 78 | 5 | 1.0 | 0.0 | 0.00 | 0.00 | 0.00 | 46 | 1008.8 |
| 20260504213040 | 78 | 188 | 2.0 | 0.0 | 0.00 | 0.00 | 0.00 | 47 | 1009.0 |
| 20260504211529 | 78 | 330 | 0.0 | 0.0 | 0.00 | 0.00 | 0.00 | 46 | 1009.1 |
| 20260504210025 | 77 | 187 | 2.0 | 0.0 | 0.00 | 0.00 | 0.00 | 48 | 1009.2 |
| 20260504204521 | 77 | 184 | 2.0 | 0.0 | 0.00 | 0.00 | 0.00 | 48 | 1009.2 |
| 20260504203017 | 77 | 173 | 1.0 | 0.0 | 0.00 | 0.00 | 0.00 | 49 | 1009.2 |
| 20260504201512 | 76 | 350 | 1.0 | 0.0 | 0.00 | 0.00 | 0.00 | 47 | 1009.2 |
| 20260504200016 | 76 | 184 | 1.0 | 0.0 | 0.00 | 0.00 | 0.00 | 49 | 1009.3 |
| 20260504194504 | 75 | 197 | 1.0 | 0.0 | 0.00 | 0.00 | 0.00 | 48 | 1009.4 |
| 20260504193101 | 75 | 196 | 1.0 | 0.0 | 0.00 | 0.00 | 0.00 | 50 | 1009.5 |
| 20260504191558 | 74 | 200 | 2.0 | 0.0 | 0.00 | 0.00 | 0.00 | 53 | 1009.8 |
| 20260504184602 | 72 | 186 | 3.0 | 0.0 | 0.00 | 0.00 | 0.00 | 55 | 1009.9 |
| 20260504183049 | 72 | 215 | 1.0 | 0.0 | 0.00 | 0.00 | 0.00 | 55 | 1009.7 |
| 20260504181546 | 70 | 184 | 3.0 | 0.0 | 0.00 | 0.00 | 0.00 | 57 | 1009.9 |
| 20260504180034 | 70 | 155 | 2.0 | 0.0 | 0.00 | 0.00 | 0.00 | 58 | 1010.0 |
| 20260504174530 | 69 | 186 | 2.0 | 0.0 | 0.00 | 0.00 | 0.00 | 58 | 1010.0 |
| 20260504173026 | 69 | 202 | 2.0 | 0.0 | 0.00 | 0.00 | 0.00 | 58 | 1010.1 |
| 20260504171520 | 68 | 164 | 1.0 | 0.0 | 0.00 | 0.00 | 0.00 | 60 | 1009.9 |